Zurück zum Katalog

FENGYUN 1C DEB

AktivSSO
NORAD 36994·DEBRIS·🇨🇳 China

Gestartet May 10, 1999 von Taiyuan Satellite Launch Center

Loading…

Nächste Überflüge (nächste 24 Stunden)

TLE

AktuellSource: Space-Track

Epoche: Sep 12, 2026, 14:44 UTC

1 36994U 99025ECA 26255.61414802  .00000017  00000-0  44276-4 0  9997
2 36994  98.6759 204.4864 0114223 260.0231  98.8023 13.90875484847145

Verfolge FENGYUN 1C DEB in Echtzeit mit AllMySat

Download on the App Store